Location: Newark
(45.8667°N, 9.7333°E)
Time: 18:34:19
(UTC+00:00)

Vanguard 2 Rocket - Pass Details

Date: 29 January 2020
Orbit: 554 x 3326 km, 32.9° (Epoch: 16 February)

Event Time Altitude Azimuth Distance (km) Brightness Sun altitude
Rises 03:40:28 0° 224° (SW) 2,711 - -32.5°
Reaches altitude 10° 03:43:32 10° 195° (SSW) 1,870 - -32.0°
Maximum altitude 03:45:39 14° 164° (SSE) 1,735 - -31.6°
Exits shadow 03:46:35 13° 150° (SSE) 1,832 8.7 -31.5°
Drops below altitude 10° 03:47:59 10° 133° (SE) 2,124 9.2 -31.2°
Sets 03:51:57 0° 108° (ESE) 3,414 10.8 -30.5°
